Powrót do katalogu

IRIDIUM 33 DEB

AktywnyPO
NORAD 35625·DEBRIS·🇺🇸 United States

Wystrzelony Sep 14, 1997 z Baikonur Cosmodrome

Loading…

Następne Przeloty (najbliższe 24 godziny)

TLE

Starzejące sięSource: Space-Track

Epoka: Sep 9, 2026, 19:13 UTC

1 35625U 97051QX  26252.80098529  .00002586  00000-0  89541-3 0  9992
2 35625  86.1836 263.8823 0104501  44.0263  77.7811 14.32296597699189

Śledź IRIDIUM 33 DEB w czasie rzeczywistym z AllMySat

Download on the App Store